Location: Chacón
(10.5789°N, 66.9317°W)
Time: 20:44:16
(UTC+00:00)

Sakura Rocket - Pass Details

Date: 16 August 2024
Orbit: 475 x 1710 km, 28.7° (Epoch: 09 September)

Event Time Altitude Azimuth Distance (km) Brightness Sun altitude
Rises 01:06:13 0° 275° (W) 2,725 7.3 -33.5°
Reaches altitude 10° 01:09:16 10° 297° (WNW) 1,710 6.1 -34.2°
Enters shadow 01:09:57 12° 305° (NW) 1,541 5.8 -34.3°
